EW8360 Weather Reports


time (UTC)temp
C
wind
direction
speed
KPH
gust
KPH
rain 1hr
cm
rain 24hr
cm
rain mn
cm
humidity
%
barometer
mb
20260504220519 18 353 6.4 22.5 0.00 0.00 0.00 66 1014.4
20260504220019 18 240 6.4 25.7 0.00 0.00 0.00 63 1014.5
20260504215517 18 311 14.5 25.7 0.00 0.00 0.00 67 1014.4
20260504215019 18 353 12.9 22.5 0.00 0.00 0.00 65 1014.4
20260504214518 18 251 4.8 22.5 0.00 0.00 0.00 66 1014.5
20260504214018 18 299 9.7 22.5 0.00 0.00 0.00 67 1014.6
20260504213517 18 359 9.7 22.5 0.00 0.00 0.00 65 1014.6
20260504213019 18 253 8.0 22.5 0.00 0.00 0.00 65 1014.5
20260504212739 18 358 9.7 22.5 0.00 0.00 0.00 66 1014.5
20260504212018 18 247 6.4 22.5 0.00 0.00 0.00 64 1014.6
20260504211517 18 355 12.9 22.5 0.00 0.00 0.00 66 1014.6
20260504211018 18 276 8.0 25.7 0.00 0.00 0.00 64 1014.7
20260504210518 18 248 6.4 27.4 0.00 0.00 0.00 66 1014.7
20260504210243 18 349 16.1 27.4 0.00 0.00 0.00 66 1014.6
20260504205516 18 263 6.4 25.7 0.00 0.00 0.00 65 1014.7
20260504205017 18 286 9.7 25.7 0.00 0.00 0.00 65 1014.7
20260504204518 18 346 11.3 25.7 0.00 0.00 0.00 68 1014.6
20260504204016 18 230 8.0 20.9 0.00 0.00 0.00 67 1014.7
20260504203733 18 262 8.0 19.3 0.00 0.00 0.00 67 1014.7
20260504203016 18 341 11.3 19.3 0.00 0.00 0.00 67 1014.7
20260504202517 18 254 1.6 22.5 0.00 0.00 0.00 67 1014.5
20260504202016 18 341 8.0 22.5 0.00 0.00 0.00 65 1014.5
20260504201515 18 309 8.0 20.9 0.00 0.00 0.00 66 1014.6
20260504201017 18 258 4.8 20.9 0.00 0.00 0.00 65 1014.6
20260504200517 18 310 9.7 25.7 0.00 0.00 0.00 64 1014.6
20260504200017 17 333 8.0 25.7 0.00 0.00 0.00 65 1014.7
20260504195516 17 324 19.3 24.1 0.00 0.00 0.00 64 1014.6
20260504195015 17 330 8.0 24.1 0.00 0.00 0.00 64 1014.7
20260504194737 17 341 11.3 25.7 0.00 0.00 0.00 67 1014.8
20260504194016 17 342 14.5 25.7 0.00 0.00 0.00 69 1014.7
20260504193515 17 272 12.9 29.0 0.00 0.00 0.00 67 1014.9
20260504193239 17 359 12.9 29.0 0.00 0.00 0.00 68 1014.9
20260504192518 17 332 16.1 22.5 0.00 0.00 0.00 67 1014.9
20260504192015 17 273 12.9 22.5 0.00 0.00 0.00 66 1015.0
20260504191514 17 330 12.9 22.5 0.00 0.00 0.00 66 1015.0
20260504191015 17 331 9.7 22.5 0.00 0.00 0.00 65 1014.9
20260504190515 17 327 16.1 27.4 0.00 0.00 0.00 65 1015.0
20260504190015 17 317 9.7 24.1 0.00 0.00 0.00 65 1014.9
20260504185514 17 348 8.0 24.1 0.00 0.00 0.00 68 1015.0
20260504185014 17 266 9.7 29.0 0.00 0.00 0.00 69 1014.9
20260504184515 18 347 22.5 29.0 0.00 0.00 0.00 67 1015.0
20260504184016 18 4 12.9 22.5 0.00 0.00 0.00 66 1015.0
20260504183514 18 252 4.8 19.3 0.00 0.00 0.00 66 1015.3
20260504183014 18 316 3.2 22.5 0.00 0.00 0.00 68 1015.1
20260504182516 18 270 8.0 22.5 0.00 0.00 0.00 64 1015.2
20260504182014 18 357 6.4 14.5 0.00 0.00 0.00 63 1015.2
20260504181513 17 269 8.0 16.1 0.00 0.00 0.00 60 1015.2
20260504181014 17 302 6.4 16.1 0.00 0.00 0.00 64 1015.2
20260504180514 17 258 8.0 16.1 0.00 0.00 0.00 63 1015.2
20260504180015 17 329 8.0 14.5 0.00 0.00 0.00 65 1015.1
20260504175513 17 348 8.0 14.5 0.00 0.00 0.00 63 1015.2
20260504175014 17 323 8.0 19.3 0.00 0.00 0.00 65 1015.0
20260504174514 17 260 8.0 19.3 0.00 0.00 0.00 64 1014.9
20260504174013 17 355 4.8 19.3 0.00 0.00 0.00 65 1014.9
20260504173512 17 274 9.7 24.1 0.00 0.00 0.00 62 1015.0
20260504173012 17 252 4.8 24.1 0.00 0.00 0.00 67 1015.0
20260504172512 17 353 9.7 16.1 0.00 0.00 0.00 66 1015.0
20260504172013 17 295 8.0 16.1 0.00 0.00 0.00 65 1015.0
20260504171512 17 13 6.4 20.9 0.00 0.00 0.00 65 1014.9
20260504171011 17 293 8.0 20.9 0.00 0.00 0.00 64 1014.9
20260504170512 17 359 16.1 20.9 0.00 0.00 0.00 65 1014.7
20260504151009 15 320 3.2 9.7 0.00 0.00 0.00 69 1014.2
20260504150509 15 269 1.6 8.0 0.00 0.00 0.00 70 1014.2
20260504141009 14 274 0.0 4.8 0.00 0.00 0.00 75 1013.9
20260504140508 14 245 1.6 3.2 0.00 0.00 0.00 76 1014.0
20260504130507 14 258 0.0 3.2 0.00 0.00 0.00 76 1013.6
20260504110504 15 325 6.4 19.3 0.00 0.00 0.00 74 1013.5
20260504100504 15 334 4.8 9.7 0.00 0.00 0.00 75 1013.2
20260504081736 15 338 9.7 22.5 0.00 0.00 0.00 77 1013.8
20260504081238 15 342 16.1 19.3 0.00 0.00 0.00 77 1014.0
20260504080238 15 334 12.9 16.1 0.00 0.00 0.00 76 1014.1
20260504070237 16 274 6.4 22.5 0.00 0.00 0.00 76 1014.4
20260504060235 16 285 3.2 9.7 0.00 0.00 0.00 76 1013.8
20260504050733 16 321 8.0 11.3 0.00 0.00 0.00 74 1013.4
20260504050233 16 323 4.8 9.7 0.00 0.00 0.00 74 1013.6
20260504045733 16 275 0.0 9.7 0.00 0.00 0.00 75 1013.8
20260504045234 16 295 3.2 9.7 0.00 0.00 0.00 75 1013.9
20260504044733 16 258 0.0 9.7 0.00 0.00 0.00 75 1013.7
20260504044233 16 271 6.4 9.7 0.00 0.00 0.00 75 1013.8
20260504043734 16 283 3.2 9.7 0.00 0.00 0.00 75 1013.4
20260504043234 16 246 6.4 9.7 0.00 0.00 0.00 75 1013.6
20260504042955 16 230 8.0 11.3 0.00 0.00 0.00 75 1013.7
20260504042452 16 264 8.0 11.3 0.00 0.00 0.00 75 1013.4
20260504041733 16 300 1.6 9.7 0.00 0.00 0.00 74 1013.3
20260504041233 16 266 1.6 9.7 0.00 0.00 0.00 73 1013.5
20260504040732 16 270 6.4 9.7 0.00 0.00 0.00 74 1013.3
20260504040232 16 272 4.8 9.7 0.00 0.00 0.00 73 1013.1
20260504035733 16 305 6.4 8.0 0.00 0.00 0.00 73 1013.0
20260504035233 16 258 1.6 4.8 0.00 0.00 0.00 73 1013.0
20260504034731 16 271 3.2 8.0 0.00 0.00 0.00 73 1013.0
20260504034231 16 223 4.8 8.0 0.00 0.00 0.00 73 1013.2
20260504033732 16 301 3.2 9.7 0.00 0.00 0.00 74 1013.1
20260504032954 16 257 3.2 12.9 0.00 0.00 0.00 73 1013.3
20260504032231 16 230 1.6 12.9 0.00 0.00 0.00 74 1013.3
20260504031732 16 259 3.2 9.7 0.00 0.00 0.00 74 1013.1
20260504031232 16 246 4.8 11.3 0.00 0.00 0.00 73 1013.0
20260504030730 16 248 3.2 11.3 0.00 0.00 0.00 73 1013.0
20260504030230 16 258 3.2 8.0 0.00 0.00 0.00 73 1013.0
20260504025732 16 239 0.0 9.7 0.00 0.00 0.00 74 1012.9
20260504025231 16 304 4.8 11.3 0.00 0.00 0.00 74 1012.9
20260504024953 16 260 3.2 11.3 0.00 0.00 0.00 73 1012.9
20260504024446 16 242 3.2 11.3 0.00 0.00 0.00 73 1012.8
20260504023733 16 281 4.8 11.3 0.00 0.00 0.00 73 1012.8
20260504022729 16 227 4.8 9.7 0.00 0.00 0.00 72 1012.8
20260504022229 16 259 0.0 14.5 0.00 0.00 0.00 71 1012.9
20260504021729 16 272 1.6 14.5 0.00 0.00 0.00 70 1012.7
20260504021231 16 250 4.8 9.7 0.00 0.00 0.00 69 1012.9
20260504020731 16 225 0.0 11.3 0.00 0.00 0.00 68 1013.0
20260504020230 16 215 0.0 12.9 0.00 0.00 0.00 69 1012.9
20260504015729 17 319 4.8 12.9 0.00 0.00 0.00 69 1012.8
20260504015231 17 310 6.4 12.9 0.00 0.00 0.00 69 1012.7
20260504014731 17 275 6.4 14.5 0.00 0.00 0.00 69 1012.8
20260504014451 17 317 6.4 16.1 0.00 0.00 0.00 69 1012.6
20260504013729 17 273 4.8 16.1 0.00 0.00 0.00 68 1012.6
20260504013458 17 307 6.4 14.5 0.00 0.00 0.00 68 1012.7
20260504012730 17 249 4.8 12.9 0.00 0.00 0.00 69 1012.8
20260504012228 17 273 3.2 14.5 0.00 0.00 0.00 69 1012.7
20260504011728 17 222 3.2 16.1 0.00 0.00 0.00 69 1012.6
20260504011229 17 309 4.8 16.1 0.00 0.00 0.00 69 1012.5
20260504010729 17 281 6.4 16.1 0.00 0.00 0.00 68 1012.4
20260504010229 17 251 11.3 16.1 0.00 0.00 0.00 69 1012.4
20260504005727 17 239 6.4 16.1 0.00 0.00 0.00 68 1012.4
20260504005229 17 331 8.0 14.5 0.00 0.00 0.00 67 1012.4
20260504004730 17 347 11.3 19.3 0.00 0.00 0.00 67 1012.2
20260504004443 17 273 9.7 19.3 0.00 0.00 0.00 68 1012.2
20260504003727 17 286 6.4 16.1 0.00 0.00 0.00 68 1012.0
20260504003229 17 264 8.0 14.5 0.00 0.00 0.00 68 1012.1
20260504002227 17 282 8.0 20.9 0.00 0.00 0.00 68 1012.1
20260504001450 17 260 6.4 16.1 0.00 0.00 0.00 68 1012.0
20260504000728 17 304 8.0 19.3 0.00 0.00 0.00 68 1012.0
20260504000226 17 297 6.4 19.3 0.00 0.00 0.00 67 1011.9
20260503235727 17 276 4.8 14.5 0.00 0.00 0.00 67 1011.9
20260503235227 17 323 12.9 14.5 0.00 0.00 0.00 66 1011.7
20260503234227 18 256 6.4 20.9 0.00 0.00 0.00 64 1011.9
20260503233726 18 302 6.4 16.1 0.00 0.00 0.00 64 1011.6
20260503233227 18 315 8.0 16.1 0.00 0.00 0.00 64 1011.5
20260503232727 18 262 6.4 19.3 0.00 0.00 0.00 63 1011.5
20260503232225 18 257 6.4 19.3 0.00 0.00 0.00 62 1011.7
20260503231725 18 306 6.4 16.1 0.00 0.00 0.00 61 1011.6
20260503231227 18 300 11.3 16.1 0.00 0.00 0.00 61 1011.6
20260503230726 18 296 9.7 16.1 0.00 0.00 0.00 61 1011.8
20260503230225 18 273 3.2 20.9 0.00 0.00 0.00 61 1011.8
20260503225726 18 338 14.5 20.9 0.00 0.00 0.00 61 1011.7
20260503225226 18 267 8.0 16.1 0.00 0.00 0.00 59 1011.9
20260503224948 18 325 9.7 19.3 0.00 0.00 0.00 61 1012.0
20260503224225 18 254 3.2 19.3 0.00 0.00 0.00 59 1012.0
20260503223726 18 262 3.2 12.9 0.00 0.00 0.00 58 1012.0
20260503223224 18 354 8.0 14.5 0.00 0.00 0.00 58 1012.0
20260503222725 18 291 6.4 24.1 0.00 0.00 0.00 58 1011.9
20260503222225 18 325 9.7 24.1 0.00 0.00 0.00 59 1011.9
20260503221725 18 349 11.3 16.1 0.00 0.00 0.00 59 1012.0
20260503221224 18 270 6.4 14.5 0.00 0.00 0.00 60 1012.1
20260503220725 18 351 9.7 16.1 0.00 0.00 0.00 60 1012.0